Location: Newark
(44.1667°N, 8.2500°E)
Time: 08:53:30
(UTC+00:00)

S-56A Canister/Altair - Pass Details

Date: 17 December 2019
Orbit: 634 x 2498 km, 38.9° (Epoch: 18 January)

Event Time Altitude Azimuth Distance (km) Brightness Sun altitude
Rises 10:10:24 0° 264° (W) 5,568 11.8 20.5°
Reaches altitude 10° 10:13:45 10° 263° (W) 4,745 11.5 20.6°
Maximum altitude 10:27:47 72° 183° (S) 2,587 10.9 21.3°
Drops below altitude 10° 10:42:28 10° 104° (ESE) 4,947 12.0 21.8°
Sets 10:46:03 0° 102° (ESE) 5,808 12.3 22.0°
